This is the latest recevied weather packets stored in our database for station/object KN6KDD. If no packets are shown the sender has not sent any weather packets the latest 10 day(s).
| Time | Temp. | Humidity | Pressure | Rain* | Wind** | Luminosity | Snow |
|---|---|---|---|---|---|---|---|
| 1777043534 | 7.78° C | 99% | 1352.5 hPa | 0 mm | - | 234 W/m² | - |
| 1777043231 | 7.78° C | 99% | 1352.6 hPa | 0 mm | - | 224 W/m² | - |
| 1777042926 | 7.78° C | 99% | 1352.6 hPa | 0 mm | - | 174 W/m² | - |
| 1777042622 | 7.22° C | 99% | 1352.7 hPa | 0 mm | - | 158 W/m² | - |
| 1777042316 | 7.22° C | 99% | 1352.7 hPa | 0 mm | - | 120 W/m² | - |
| 1777042013 | 7.22° C | 99% | 1352.7 hPa | 0 mm | - | 108 W/m² | - |
| 1777041710 | 7.22° C | 99% | 1352.7 hPa | 0 mm | - | 106 W/m² | - |
| 1777041406 | 6.67° C | 99% | 1352.6 hPa | 0 mm | - | 94 W/m² | - |
| 1777041104 | 6.67° C | 99% | 1352.7 hPa | 0 mm | - | 88 W/m² | - |
| 1777040799 | 6.67° C | 99% | 1353 hPa | 0 mm | - | 69 W/m² | - |
| 1777040493 | 6.67° C | 99% | 1352.7 hPa | 0 mm | - | 68 W/m² | - |
| 1777040189 | 6.67° C | 99% | 1352.7 hPa | 0 mm | - | 56 W/m² | - |
| 1777039884 | 6.67° C | 99% | 1352.6 hPa | 0 mm | - | 54 W/m² | - |
| 1777039580 | 6.67° C | 99% | 1352.5 hPa | 0 mm | - | 42 W/m² | - |
| 1777039275 | 6.67° C | 99% | 1352.6 hPa | 0 mm | - | 34 W/m² | - |
| 1777038975 | 6.67° C | 99% | 1352.1 hPa | 0 mm | - | 27 W/m² | - |
| 1777038671 | 6.67° C | 99% | 1352.3 hPa | 0 mm | - | 20 W/m² | - |
| 1777038367 | 6.67° C | 99% | 1352.3 hPa | 0 mm | - | 16 W/m² | - |
| 1777038062 | 6.67° C | 99% | 1352.3 hPa | 0 mm | - | 12 W/m² | - |
| 1777037757 | 6.67° C | 99% | 1352.2 hPa | 0 mm | - | 9 W/m² | - |
| 1777037453 | 6.67° C | 99% | 1352.1 hPa | 0 mm | - | 6 W/m² | - |
| 1777037150 | 7.22° C | 99% | 1352 hPa | 0 mm | - | 4 W/m² | - |
| 1777036848 | 7.22° C | 99% | 1352 hPa | 0 mm | - | 2 W/m² | - |
| 1777036545 | 6.67° C | 98% | 1351.8 hPa | 0 mm | - | 1 W/m² | - |
| 1777036243 | 6.67° C | 98% | 1352.1 hPa | 0 mm | - | 1 W/m² | - |
* Rain latest hour (hover to see other rain measurements)
** Current wind speed in m/s (hover to see current wind gust speed)